Погода в Морзохе

Россия / Кабардино-Балкарская Республика     43°34′02″N   43°50′29″E
темп.,
°C
ветер,
м/с
пор.,
м/с
влажн.,
%
обл.,
%
осадки,
мм/ч
давл.,
гПа
погр.,
м
25 октября, пн
пн2500:00+11ссз3484100 0.0 1017220
03:00+10ссз3589100 0.1 1019443
06:00+6ссз6989100 1.8 1023930
09:00+4ссз3595100 4.9 1027640
12:00+4ссз3695100 1.7 1028589
15:00+5ссз3584100 2.4 1029718
18:00+4ссз3594100 1.0 1031605
21:00+4ю239182 1.8 1032153
26 октября, вт
вт2600:00+3юз119314 0.0 103230
03:00+3з119192 0.0 103254
06:00+2юз119221 0.0 103311
09:00+5вюв017652 0.0 1033404
12:00+7в226498 0.0 10311132
15:00+7в2265100 0.0 1031760
18:00+6вюв226697 0.0 103158
21:00+5юв22736 0.0 103125
27 октября, ср
ср2700:00+3ююз11805 0.0 103114
03:00+2ююз11803 0.0 103011
06:00+1ююв01821 0.0 103110
09:00+5в22693 0.0 1030334
12:00+8в33584 0.0 1028728
15:00+10в34511 0.0 1026847
18:00+5вюв12660 0.0 102714
21:00+4з11730 0.0 102710
28 октября, чт
чт2800:00+3зсз11810 0.0 102612
03:00+2сз11860 0.0 102614
06:00+2зсз11840 0.0 102610
09:00+6св10660 0.0 1026160
12:00+11ссв22530 0.0 1024412
15:00+12ссв21510 0.0 1024507
18:00+8ююз11670 0.0 102410
21:00+7зюз11750 0.0 102410
29 октября, пт
пт2900:00+7зюз11780 0.0 102410
03:00+6з11790 0.0 102410
06:00+5юз11790 0.0 102510
09:00+9всв116363 0.0 1026186
12:00+12св2249100 0.0 1024621
15:00+12всв1145100 0.0 1024651
18:00+9ю115792 0.0 102610
21:00+7юз11663 0.0 102610